Location: Arbon
(43.0005°N, 0.7472°E)
Time: 17:28:39
(UTC+00:00)

Meteor 1-16 Rocket - Pass Details

Date: 07 August 2020
Orbit: 791 x 906 km, 81.2° (Epoch: 23 September)

Event Time Altitude Azimuth Distance (km) Brightness Sun altitude
Exits shadow 03:38:17 - 189° (S) 2,561 6.3 -12.9°
Reaches altitude 10° 03:38:48 10° 189° (S) 2,363 6.1 -12.8°
Maximum altitude 03:44:08 89° 282° (WNW) 816 4.1 -12.0°
Drops below altitude 10° 03:49:39 10° 10° (N) 2,438 7.3 -11.2°
Sets 03:52:06 0° 11° (N) 3,394 8.1 -10.8°
